Lexington, KY

8:07 PM EST on February 22, 2018 (GMT -0500)
Blue Grass

Weather History for KLEX - June, 2013

Change the Weather History Date:

Thursday, June 27, 2013

  Actual Average Record
Temperature  
Mean Temperature 78 °F 75 °F  
Max Temperature 87 °F 85 °F 101 °F (1944)
Min Temperature 68 °F 65 °F 51 °F (2012)
Degree Days  
Heating Degree Days 0 0  
Month to date heating degree days 0 8  
Since 1 June heating degree days 0 8  
Since 1 July heating degree days 4667 4608  
Cooling Degree Days 13 10  
Month to date cooling degree days 241 210  
Year to date cooling degree days 394 317  
Since 1 June cooling degree days 241 210  
Growing Degree Days 28 (Base 50)    
Moisture  
Dew Point 69 °F    
Average Humidity 77    
Maximum Humidity 97    
Minimum Humidity 57    
Precipitation  
Precipitation 0.16 in 0.13 in 3.06 in (1973)
Month to date precipitation 6.91 4.05  
Year to date precipitation 28.77 23.38  
Snow  
Snow 0.00 in 0.00 in - ()
Month to date snowfall 0.0 0.0  
Since 1 June snowfall 0.0 0.0  
Since 1 July snowfall 12.5 13.0  
Snow Depth 0.00 in    
Sea Level Pressure  
Sea Level Pressure 29.81 in    
Wind  
Wind Speed 8 mph (WSW)    
Max Wind Speed 14 mph    
Max Gust Speed 20 mph    
Visibility 8 miles    
Events Rain , Thunderstorm    
T = Trace of Precipitation, MM = Missing Value Source: NWS Daily Summary

Daily Weather History Graph

Daily Weather History Graph

Search for Another Location

Airport or City:

Trip Planner

Search our weather history database for the weather conditions in past years. The results will help you decide how hot, cold, wet, or windy it might be!

Date:

Astronomy

Jun. 27, 2013 Rise Set
Actual Time 6:17 AM EDT 9:05 PM EDT
Civil Twilight 5:46 AM EDT 9:36 PM EDT
Nautical Twilight 5:06 AM EDT 10:16 PM EDT
Astronomical Twilight 4:22 AM EDT 11:00 PM EDT
Moon No Moon Rise 11:12 AM EDT (6/27)
Length of Visible Light 15h 50m
Length of Day
14h 47m
Waning Gibbous, 76% of the Moon is Illuminated
Jun 27
Waning Gibbous
Jun 30
Last Quarter
Jul 8
New
Jul 15
First Quarter
Jul 22
Full

Hourly Weather History & Observations

Time (EDT) Temp. Heat Index Dew Point Humidity Pressure Visibility Wind Dir Wind Speed Gust Speed Precip Events Conditions
12:54 AM 68.0 °F - 66.9 °F 96% 29.81 in 6.0 mi South 6.9 mph - 0.12 in Rain , Thunderstorm Heavy Thunderstorms and Rain
1:37 AM 68.0 °F - 66.2 °F 94% 29.88 in 7.0 mi SSW 4.6 mph - 0.15 in Rain , Thunderstorm Heavy Thunderstorms and Rain
1:54 AM 68.0 °F - 66.0 °F 93% 29.83 in 10.0 mi SE 4.6 mph - 0.16 in Rain , Thunderstorm Heavy Thunderstorms and Rain
2:24 AM 68.0 °F - 66.2 °F 94% 29.84 in 10.0 mi SE 6.9 mph - 0.00 in   Mostly Cloudy
2:54 AM 68.0 °F - 66.0 °F 93% 29.81 in 10.0 mi South 6.9 mph - 0.00 in   Overcast
3:12 AM 69.8 °F - 66.2 °F 88% 29.82 in 10.0 mi South 8.1 mph - 0.00 in Rain Light Rain
3:54 AM 69.1 °F - 66.9 °F 93% 29.78 in 10.0 mi South 8.1 mph - 0.01 in Rain Light Rain
4:23 AM 69.8 °F - 66.2 °F 88% 29.81 in 10.0 mi SSW 8.1 mph - 0.00 in   Overcast
4:54 AM 69.1 °F - 66.9 °F 93% 29.78 in 10.0 mi SSW 6.9 mph - 0.00 in   Overcast
5:08 AM 69.8 °F - 66.2 °F 88% 29.81 in 10.0 mi South 8.1 mph - N/A   Overcast
5:54 AM 69.1 °F - 66.9 °F 93% 29.78 in 10.0 mi SSW 6.9 mph - N/A   Overcast
6:37 AM 69.8 °F - 66.2 °F 88% 29.82 in 6.0 mi SSW 6.9 mph - 0.00 in Rain Light Rain
6:54 AM 69.1 °F - 66.9 °F 93% 29.81 in 7.0 mi SSW 6.9 mph - 0.00 in   Overcast
7:19 AM 69.8 °F - 66.2 °F 88% 29.83 in 5.0 mi SW 6.9 mph - N/A   Overcast
7:54 AM 70.0 °F - 68.0 °F 93% 29.81 in 5.0 mi SW 9.2 mph - N/A   Overcast
8:32 AM 69.8 °F - 69.8 °F 100% 29.83 in 4.0 mi WSW 8.1 mph - N/A   Overcast
8:54 AM 71.1 °F - 69.1 °F 93% 29.81 in 3.0 mi WSW 9.2 mph - N/A   Overcast
9:22 AM 71.6 °F - 69.8 °F 94% 29.84 in 2.0 mi West 5.8 mph - N/A   Overcast
9:30 AM 71.6 °F - 69.8 °F 94% 29.84 in 1.8 mi West 5.8 mph - N/A   Overcast
9:54 AM 72.0 °F - 70.0 °F 93% 29.82 in 2.0 mi West 6.9 mph - N/A   Overcast
10:01 AM 71.6 °F - 69.8 °F 94% 29.84 in 1.2 mi West 6.9 mph - N/A   Overcast
10:24 AM 73.4 °F - 69.8 °F 88% 29.84 in 3.0 mi West 8.1 mph - N/A   Overcast
10:33 AM 73.4 °F - 71.6 °F 94% 29.84 in 6.0 mi West 6.9 mph - N/A   Overcast
10:54 AM 73.9 °F - 70.0 °F 87% 29.82 in 10.0 mi West 8.1 mph - N/A   Overcast
11:05 AM 75.2 °F - 69.8 °F 83% 29.84 in 10.0 mi West 8.1 mph - N/A   Overcast
11:54 AM 78.1 °F - 70.0 °F 76% 29.81 in 10.0 mi WSW 11.5 mph - N/A   Overcast
12:23 PM 78.8 °F - 71.6 °F 78% 29.83 in 10.0 mi West 8.1 mph - N/A   Mostly Cloudy
12:51 PM 80.6 °F 84.6 °F 71.6 °F 74% 29.83 in 10.0 mi WSW 11.5 mph - N/A   Mostly Cloudy
12:54 PM 80.1 °F 83.8 °F 72.0 °F 76% 29.81 in 10.0 mi WSW 10.4 mph - N/A   Mostly Cloudy
1:54 PM 81.0 °F 85.8 °F 73.0 °F 77% 29.81 in 9.0 mi WSW 11.5 mph - 0.00 in   Overcast
2:51 PM 84.2 °F 90.9 °F 73.4 °F 70% 29.82 in 8.0 mi West 6.9 mph 16.1 mph 0.00 in   Mostly Cloudy
2:54 PM 84.0 °F 91.2 °F 73.9 °F 72% 29.79 in 8.0 mi West 8.1 mph 16.1 mph 0.00 in   Mostly Cloudy
3:54 PM 86.0 °F 93.0 °F 73.0 °F 65% 29.78 in 10.0 mi WNW 10.4 mph 18.4 mph N/A   Partly Cloudy
4:54 PM 86.0 °F 91.5 °F 71.1 °F 61% 29.78 in 10.0 mi NNW 11.5 mph 19.6 mph N/A   Partly Cloudy
5:54 PM 86.0 °F 90.7 °F 70.0 °F 59% 29.76 in 10.0 mi NNW 9.2 mph - N/A   Clear
6:54 PM 84.9 °F 90.1 °F 71.1 °F 63% 29.77 in 10.0 mi WNW 8.1 mph - N/A   Partly Cloudy
7:54 PM 84.0 °F 89.6 °F 72.0 °F 67% 29.77 in 10.0 mi West 5.8 mph - N/A   Partly Cloudy
8:54 PM 78.1 °F - 73.0 °F 84% 29.78 in 10.0 mi WSW 6.9 mph - N/A   Clear
9:54 PM 75.9 °F - 72.0 °F 87% 29.77 in 10.0 mi WSW 5.8 mph - N/A   Clear
10:54 PM 75.0 °F - 71.1 °F 87% 29.77 in 10.0 mi SW 4.6 mph - N/A   Clear
11:54 PM 73.9 °F - 70.0 °F 87% 29.76 in 10.0 mi SSW 6.9 mph - N/A   Clear